This demonstration page uses our WeatherBlox Daily Observations layout. Learn more.

Left ArrowRight Arrow

40.92945, -100.16068

Hourly Observations for September 16, 2019

Temp ( °F °C ) Dew Point ( °F °C ) Humidity (%) Winds ( mph kmh ) Pressure ( in mb ) Visibility ( mi km ) Precip ( " mm )
12:15 am 00:15 Clear 67 19.5 60 15.8 79 79 S 6 9 29.91 1013 10 16 0.00 0.00
12:35 am 00:35 Clear 67 19.2 60 15.8 81 81 S 8 13 29.91 1013 10 16 0.00 0.00
12:55 am 00:55 Clear 67 19.6 60 15.7 78 78 S 9 15 29.91 1013 10 16 0.00 0.00
1:15 am 01:15 Clear 68 20 60 15.6 76 76 S 8 13 29.90 1013 10 16 0.00 0.00
1:35 am 01:35 Clear 67 19.4 60 15.5 78 78 SSE 7 11 29.91 1013 10 16 0.00 0.00
1:55 am 01:55 Clear 67 19.2 60 15.5 79 79 SSE 8 13 29.91 1013 10 16 0.00 0.00
2:15 am 02:15 Clear 69 20.3 60 15.4 74 74 S 9 15 29.90 1013 10 16 0.00 0.00
2:35 am 02:35 Clear 69 20.5 60 15.3 72 72 S 10 17 29.90 1012 10 16 0.00 0.00
2:55 am 02:55 Clear 69 20.6 59 15.2 71 71 S 10 17 29.90 1012 10 16 0.00 0.00
3:15 am 03:15 Clear 69 20.6 59 15.2 71 71 S 10 17 29.90 1012 10 16 0.00 0.00
3:35 am 03:35 Clear 69 20.5 60 15.3 72 72 S 10 17 29.90 1012 10 16 0.00 0.00
3:55 am 03:55 Clear 68 20 60 15.4 75 75 S 9 15 29.90 1013 10 16 0.00 0.00
4:15 am 04:15 Clear 68 19.8 60 15.3 75 75 S 9 15 29.89 1012 10 16 0.00 0.00
4:35 am 04:35 Clear 68 20 60 15.3 74 74 S 10 17 29.89 1012 10 16 0.00 0.00
4:55 am 04:55 Clear 68 20 59 15.2 74 74 S 9 15 29.89 1012 10 16 0.00 0.00
5:15 am 05:15 Clear 67 19.3 59 15.1 77 77 S 8 13 29.90 1012 10 16 0.00 0.00
5:35 am 05:35 Clear 67 19.4 59 15 76 76 S 9 15 29.90 1012 10 16 0.00 0.00
5:55 am 05:55 Clear 68 19.8 59 15 74 74 S 10 17 29.89 1012 10 16 0.00 0.00
6:15 am 06:15 Clear 68 20.1 59 15 73 73 S 10 17 29.89 1012 10 16 0.00 0.00
6:35 am 06:35 Clear 69 20.4 58 14.7 70 70 S 9 15 29.89 1012 10 16 0.00 0.00
6:55 am 06:55 Clear 68 20.1 59 14.8 72 72 S 10 17 29.89 1012 10 16 0.00 0.00
7:15 am 07:15 Clear 68 20 58 14.7 72 72 S 9 15 29.90 1013 10 16 0.00 0.00
7:35 am 07:35 Sunny 69 20.4 58 14.5 69 69 S 10 17 29.90 1012 10 16 0.00 0.00
7:55 am 07:55 Sunny 69 20.7 58 14.6 68 68 S 10 17 29.90 1012 10 16 0.00 0.00
8:15 am 08:15 Sunny 69 20.4 58 14.7 70 70 S 9 15 29.90 1012 10 16 0.00 0.00
8:35 am 08:35 Sunny 69 20.5 59 14.8 70 70 S 10 17 29.90 1012 10 16 0.00 0.00
8:55 am 08:55 Sunny 71 21.5 59 14.9 66 66 S 13 20 29.89 1012 10 16 0.00 0.00
9:15 am 09:15 Sunny 71 21.8 59 15 65 65 S 12 19 29.89 1012 10 16 0.00 0.00
9:35 am 09:35 Sunny 72 22 59 15.1 65 65 S 14 22 29.89 1012 10 16 0.00 0.00
9:55 am 09:55 Sunny 73 22.5 59 15.2 63 63 S 15 24 29.88 1012 10 16 0.00 0.00
10:15 am 10:15 Sunny 74 23.1 60 15.4 62 62 S 13 20 29.88 1012 10 16 0.00 0.00
10:35 am 10:35 Sunny 74 23.3 60 15.7 62 62 S 14 22 29.87 1012 10 16 0.00 0.00
10:55 am 10:55 Sunny 74 23.5 61 16 63 63 S 12 19 29.87 1012 10 16 0.00 0.00
11:15 am 11:15 Sunny 76 24.2 61 16.2 61 61 S 13 20 29.87 1011 10 16 0.00 0.00
11:35 am 11:35 Sunny 77 24.8 62 16.6 60 60 SSE 10 17 29.85 1011 10 16 0.00 0.00
11:55 am 11:55 Sunny 79 26 63 17.1 58 58 SSE 12 19 29.84 1011 10 16 0.00 0.00
12:15 pm 12:15 Sunny 81 27 62 16.5 53 53 S 12 19 29.82 1010 10 16 0.00 0.00
12:35 pm 12:35 Sunny 82 28 63 17.3 52 52 SSE 9 15 29.81 1009 10 16 0.00 0.00
12:55 pm 12:55 Sunny 85 29.3 60 15.4 43 43 S 18 30 29.80 1009 10 16 0.00 0.00
1:15 pm 13:15 Sunny 84 29 61 16.1 46 46 S 16 26 29.79 1009 10 16 0.00 0.00
1:35 pm 13:35 Sunny 86 29.9 60 15.7 42 42 S 18 30 29.77 1008 10 16 0.00 0.00
1:55 pm 13:55 Sunny 86 30.1 61 16.1 43 43 S 14 22 29.75 1007 10 16 0.00 0.00
2:15 pm 14:15 Sunny 90 32.1 59 15 36 36 S 26 43 29.73 1007 10 16 0.00 0.00
2:35 pm 14:35 Sunny 90 32.2 58 14.4 34 34 S 28 44 29.72 1007 10 16 0.00 0.00
2:55 pm 14:55 Sunny 91 32.6 59 15.2 35 35 S 24 39 29.71 1006 10 16 0.00 0.00
3:15 pm 15:15 Sunny 91 32.6 60 15.7 36 36 S 22 35 29.71 1006 7 11 0.00 0.00
3:35 pm 15:35 Hazy 90 32.4 59 15.2 35 35 S 29 46 29.70 1006 5 8 0.00 0.00
3:55 pm 15:55 Hazy 90 32.2 60 15.4 36 36 S 23 37 29.70 1006 5 8 0.00 0.00
4:15 pm 16:15 Hazy 90 32.1 60 15.6 37 37 SSE 22 35 29.69 1006 5 8 0.00 0.00
4:35 pm 16:35 Hazy 90 32.3 60 15.5 36 36 S 22 35 29.69 1005 5 8 0.00 0.00
4:55 pm 16:55 Sunny 90 32.3 58 14.6 34 34 S 20 31 29.69 1005 7 11 0.00 0.00
5:15 pm 17:15 Sunny 90 32.2 58 14.7 35 35 S 22 35 29.68 1005 7 11 0.00 0.00
5:35 pm 17:35 Hazy 90 32 58 14.6 35 35 S 18 30 29.68 1005 5 8 0.00 0.00
5:55 pm 17:55 Hazy 89 31.6 58 14.3 35 35 S 20 31 29.68 1005 5 8 0.00 0.00
6:15 pm 18:15 Sunny 88 31 58 14.6 37 37 S 16 26 29.69 1005 7 11 0.00 0.00
6:35 pm 18:35 Hazy 87 30.5 58 14.4 37 37 S 15 24 29.70 1006 5 8 0.00 0.00
6:55 pm 18:55 Hazy 85 29.7 58 14.4 39 39 S 15 24 29.70 1006 5 8 0.00 0.00
7:15 pm 19:15 Hazy 83 28.5 58 14.5 42 42 SSE 12 19 29.71 1006 5 8 0.00 0.00
7:35 pm 19:35 Hazy 82 27.5 58 14.5 45 45 SSE 12 19 29.72 1006 5 8 0.00 0.00
7:55 pm 19:55 Hazy 80 26.5 58 14.4 47 47 SSE 13 20 29.73 1007 5 8 0.00 0.00
8:15 pm 20:15 Clear 78 25.4 58 14.5 51 51 SSE 10 17 29.74 1007 10 16 0.00 0.00
8:35 pm 20:35 Clear 76 24.5 59 14.8 55 55 SSE 10 17 29.75 1008 7 11 0.00 0.00
8:55 pm 20:55 Hazy 75 23.8 60 15.3 59 59 SSE 14 22 29.76 1008 5 8 0.00 0.00
9:15 pm 21:15 Mostly Cloudy 75 24.1 61 16 61 61 SSE 12 19 29.76 1008 7 11 0.00 0.00
9:35 pm 21:35 Cloudy 75 24 61 16.1 61 61 SSE 13 20 29.77 1008 7 11 0.00 0.00
9:55 pm 21:55 Mostly Cloudy 75 23.7 61 16 62 62 SSE 13 20 29.77 1008 7 11 0.00 0.00
10:15 pm 22:15 Partly Cloudy 74 23.3 61 16 64 64 SSE 13 20 29.77 1008 7 11 0.00 0.00
10:35 pm 22:35 Hazy 74 23.1 61 16 64 64 SSE 14 22 29.78 1008 5 8 0.00 0.00
10:55 pm 22:55 Clear 75 24.1 60 15.7 60 60 SSE 16 26 29.77 1008 7 11 0.00 0.00
11:15 pm 23:15 Clear 75 24.1 60 15.7 60 60 SSE 17 28 29.77 1008 7 11 0.00 0.00
11:35 pm 23:35 Clear 75 23.9 60 15.8 61 61 S 17 28 29.78 1008 7 11 0.00 0.00
11:55 pm 23:55 Clear 75 24 61 16 61 61 S 17 28 29.78 1008 7 11 0.00 0.00

Powered by AerisWeather